Location: Altmatt
(47.1333°N, 8.7000°E)
Time: 01:22:57
(UTC+00:00)

Cosmos 1452 Rocket - Visible Passes

Search period start: 24 October 2020 00:00
Search period end: 03 November 2020 00:00
Orbit: 767 x 775 km, 74.1° (Epoch: 23 October)

Date Brightness Start Highest point End Pass type
(mag) Time Alt. Az. Time Alt. Az. Time Alt. Az.
24 Oct 4.0 17:11:05 10° SSW 17:16:19 67° WNW 17:21:36 10° NNE visible
24 Oct 6.3 18:57:06 10° WNW 18:59:32 13° NW 19:01:59 10° NNW visible
25 Oct 6.0 18:19:13 10° W 18:22:55 19° NW 18:26:38 10° N visible
26 Oct 5.5 17:41:57 10° WSW 17:46:25 27° NW 17:50:56 10° N visible
27 Oct 4.8 17:05:04 10° SW 17:10:01 41° WNW 17:15:02 10° N visible
28 Oct 6.2 18:14:41 10° WNW 18:16:59 13° NW 18:19:18 10° NNW visible
29 Oct 6.0 17:36:45 10° W 17:40:22 18° NW 17:44:00 10° N visible
30 Oct 5.5 16:59:26 10° WSW 17:03:52 27° NW 17:08:18 10° N visible
01 Nov 6.2 17:32:18 10° WNW 17:34:26 12° NW 17:36:35 10° NNW visible
02 Nov 6.0 16:54:16 10° W 16:57:48 18° NW 17:01:22 10° N visible
